Orbital Elements at Epoch 2459172.5 (2020-Nov-19.0) TDB
Reference: JPL 7 (heliocentric ecliptic J2000)
Element | Value | Uncertainty (1-sigma) | Units |
e | .5996963111660467 | 0.0012943 | |
a | 1.606787784206842 | 0.0040924 | au |
q | .6432030771913329 | 0.00044141 | au |
i | 12.60397111737846 | 0.027325 | deg |
node | 242.6204104299129 | 0.0020554 | deg |
peri | 268.796810451673 | 0.0033599 | deg |
M | 331.7008084617831 | 0.13054 | deg |
tp | 2459230.980050187983 (2021-Jan-16.48005019) | 0.046346 | TDB |
period | 743.9370852429798 2.04 | 2.8422 0.007782 | d yr |
n | .4839118887081952 | 0.0018488 | deg/d |
Q | 2.570372491222351 | 0.0065467 | au |
|
| | Orbit Determination Parameters
Additional Information
|